Tracking 19706 objects as of 16-Jun-2019
HD Live streaming from Space Station
objects crossing your sky now

SL-8 DEB

Track SL-8 DEB now!
10-day predictions


NORAD ID: 2647
Int'l Code: 1965-073L
Perigee: 1,354.6 km
Apogee: 1,645.1 km
Inclination: 56.1 °
Period: 115.8 minutes
Semi major axis: 7870 km
RCS: 0.0558 m2 (small)
Launch date: September 18, 1965
Source: Commonwealth of Independent States (former USSR) (CIS)
Launch site: TYURATAM MISSILE AND SPACE COMPLEX (TTMTR)

Note: This is SATELLITE DEBRIS
aabbcc
Your satellite tracking list
Your tracking list is empty




NASA's NSSDC Master Catalog

Two Line Element Set (TLE):
1  2647U 65073L   19166.48052233 -.00000024  00000-0  46630-3 0  9999
2  2647  56.0629 172.2795 0184541 260.4733 262.5247 12.43273163799331
Source of the keplerian elements: AFSPC